sat.trackr.live / text

‹ back to catalog

THOR 5

NORAD 32487 · 2008-006A

PAYLOAD ACTIVE UNKNOWN

§ Identity

Operator
Country
NOR
Launch date
2008-02-11
Launch site
TYMSC
Launch vehicle
Mass (kg)
RCS (m²)
31.62

Purposes: comms

External: N2YO · Heavens-Above · Gunter

§ Orbital elements

Epoch: 2026-09-19T22:05:59.311968Z

Period
1,436.09 min
Inclination
0.0224°
Eccentricity
0.0002375
Mean motion
1.00272073 rev/d
Perigee alt
35,776.5 km
Apogee alt
35,796.5 km
Semi-major
42,164.7 km
B*
0.0000e+0
RAAN
226.8132°
Arg perigee
307.3688°
Mean anomaly
155.3906°
Rev number
6,826

§ Raw data

THOR 51 32487U 08006A   26262.92082537 -.00000013  00000+0  00000+0 0  99952 32487   0.0224 226.8132 0002375 307.3688 155.3906  1.00272073 68263

JSON: /api/v1/satellites/32487 · /tle

For live sub-satellite position, see the globe view (requires WebGL).

§ Visibility from observer

Set your observer location to see the next 7 days of passes ≥ 10°. The values pass through the URL so the page stays shareable.

No JS? Fill the form by hand. The geolocation button needs JavaScript.